Weather History for KMCO - February, 2013

Change the Weather History Date:

Saturday, February 23, 2013

  Actual Average Record
Temperature  
Mean Temperature 79 °F 64 °F  
Max Temperature 89 °F 75 °F 89 °F (2013)
Min Temperature 69 °F 53 °F 30 °F (1939)
Degree Days  
Heating Degree Days 0 3  
Month to date heating degree days 86 100  
Since 1 July heating degree days 308 484  
Cooling Degree Days 14 2  
Month to date cooling degree days 75 46  
Year to date cooling degree days 176 91  
Growing Degree Days 29 (Base 50)    
Moisture  
Dew Point 67 °F    
Average Humidity 71    
Maximum Humidity 100    
Minimum Humidity 42    
Precipitation  
Precipitation T in 0.09 in 2.32 in (1965)
Month to date precipitation 0.50 1.93  
Year to date precipitation 0.74 4.28  
Sea Level Pressure  
Sea Level Pressure 29.97 in    
Wind  
Wind Speed 11 mph (SSW)    
Max Wind Speed 21 mph    
Max Gust Speed 25 mph    
Visibility 10 miles    
Events Rain    
T = Trace of Precipitation, MM = Missing Value Source: NWS Daily Summary

Daily Weather History Graph

Daily Weather History Graph

Search for Another Location

Airport or City:

Trip Planner

Search our weather history database for the weather conditions in past years. The results will help you decide how hot, cold, wet, or windy it might be!

Date:

Astronomy

Feb. 23, 2013 Rise Set
Actual Time 6:55 AM EST 6:21 PM EST
Civil Twilight 6:32 AM EST 6:45 PM EST
Nautical Twilight 6:04 AM EST 7:12 PM EST
Astronomical Twilight 5:37 AM EST 7:40 PM EST
Moon 4:35 PM EST (2/23) 5:10 AM EST (2/23)
Length of Visible Light 12h 13m
Length of Day
11h 25m
Waxing Gibbous, 95% of the Moon is Illuminated
Feb 23
Waxing Gibbous
Feb 25
Full
Mar 4
Last Quarter
Mar 11
New
Mar 19
First Quarter

Hourly Weather History & Observations

Time (EST) Temp. Heat Index Dew Point Humidity Pressure Visibility Wind Dir Wind Speed Gust Speed Precip Events Conditions
12:53 AM 71.1 °F - 69.1 °F 93% 30.03 in 10.0 mi South 9.2 mph - N/A   Mostly Cloudy
1:53 AM 71.1 °F - 69.1 °F 93% 30.02 in 10.0 mi South 5.8 mph - 0.00 in Rain Light Rain
2:53 AM 71.1 °F - 69.1 °F 93% 30.00 in 10.0 mi South 10.4 mph - 0.00 in   Mostly Cloudy
3:53 AM 71.1 °F - 69.1 °F 93% 30.00 in 10.0 mi South 10.4 mph - N/A   Mostly Cloudy
4:53 AM 70.0 °F - 69.1 °F 97% 29.99 in 10.0 mi South 9.2 mph - N/A   Scattered Clouds
5:01 AM 69.8 °F - 69.8 °F 100% 29.99 in 10.0 mi South 9.2 mph - N/A   Scattered Clouds
5:05 AM 69.8 °F - 69.8 °F 100% 29.99 in 10.0 mi South 9.2 mph - N/A   Mostly Cloudy
5:10 AM 69.8 °F - 69.8 °F 100% 29.99 in 10.0 mi South 10.4 mph - N/A   Mostly Cloudy
5:53 AM 70.0 °F - 69.1 °F 97% 29.99 in 10.0 mi South 10.4 mph - N/A   Overcast
6:00 AM 69.8 °F - 68.0 °F 94% 29.99 in 10.0 mi South 9.2 mph - N/A   Scattered Clouds
6:14 AM 69.8 °F - 69.8 °F 100% 29.99 in 10.0 mi South 8.1 mph - N/A   Mostly Cloudy
6:25 AM 69.8 °F - 69.8 °F 100% 29.99 in 10.0 mi South 10.4 mph - N/A   Overcast
6:39 AM 69.8 °F - 68.0 °F 94% 29.99 in 10.0 mi South 10.4 mph - N/A   Mostly Cloudy
6:53 AM 70.0 °F - 69.1 °F 97% 29.99 in 10.0 mi South 13.8 mph - N/A   Overcast
7:15 AM 69.8 °F - 69.8 °F 100% 30.00 in 10.0 mi South 10.4 mph - N/A   Overcast
7:53 AM 71.1 °F - 69.1 °F 93% 30.00 in 10.0 mi South 15.0 mph 19.6 mph N/A   Overcast
8:53 AM 73.0 °F - 69.1 °F 87% 30.02 in 10.0 mi South 13.8 mph - N/A   Overcast
9:19 AM 73.4 °F - 68.0 °F 83% 30.02 in 10.0 mi South 16.1 mph - N/A   Overcast
9:53 AM 77.0 °F - 68.0 °F 74% 30.01 in 10.0 mi South 15.0 mph 20.7 mph N/A   Overcast
10:53 AM 79.0 °F - 66.9 °F 66% 30.00 in 10.0 mi SSW 17.3 mph 24.2 mph N/A   Scattered Clouds
11:43 AM 82.4 °F 84.6 °F 66.2 °F 58% 29.99 in 10.0 mi SW 15.0 mph 21.9 mph N/A   Mostly Cloudy
11:53 AM 82.0 °F 84.1 °F 66.0 °F 58% 29.99 in 10.0 mi SSW 18.4 mph 23.0 mph N/A   Mostly Cloudy
12:53 PM 84.9 °F 87.1 °F 66.0 °F 53% 29.96 in 10.0 mi SW 12.7 mph - N/A   Mostly Cloudy
1:53 PM 86.0 °F 87.3 °F 64.0 °F 48% 29.92 in 10.0 mi SSW 15.0 mph 20.7 mph N/A   Mostly Cloudy
2:53 PM 88.0 °F 88.7 °F 63.0 °F 43% 29.90 in 10.0 mi SW 13.8 mph 25.3 mph N/A   Mostly Cloudy
3:53 PM 87.1 °F 87.5 °F 62.1 °F 43% 29.89 in 10.0 mi SW 16.1 mph 21.9 mph N/A   Mostly Cloudy
4:53 PM 86.0 °F 86.1 °F 61.0 °F 43% 29.88 in 10.0 mi WSW 18.4 mph 25.3 mph N/A   Mostly Cloudy
5:53 PM 82.9 °F 83.7 °F 62.1 °F 49% 29.89 in 10.0 mi WSW 9.2 mph - N/A   Mostly Cloudy
6:53 PM 80.1 °F 81.5 °F 63.0 °F 56% 29.91 in 10.0 mi WSW 6.9 mph - N/A   Mostly Cloudy
7:53 PM 77.0 °F - 63.0 °F 62% 29.93 in 10.0 mi West 5.8 mph - N/A   Mostly Cloudy
8:53 PM 75.9 °F - 66.9 °F 74% 29.94 in 10.0 mi WSW 5.8 mph - N/A   Mostly Cloudy
9:53 PM 73.9 °F - 69.1 °F 85% 29.95 in 10.0 mi WSW 6.9 mph - N/A   Scattered Clouds
10:53 PM 72.0 °F - 70.0 °F 93% 29.96 in 10.0 mi SW 5.8 mph - N/A   Scattered Clouds
11:53 PM 71.1 °F - 70.0 °F 96% 29.95 in 9.0 mi SW 8.1 mph - N/A   Scattered Clouds